Chadron, NE

12:52 PM MST on February 24, 2017 (GMT -0700)
Chadron Municipal

Weather History for KCDR - December, 2012

Change the Weather History Date:

Friday, December 28, 2012

  Actual Average Record
Temperature  
Mean Temperature 6 °F 24 °F  
Max Temperature 25 °F 38 °F 63 °F (2010)
Min Temperature -13 °F 10 °F -19 °F (1941)
Degree Days  
Heating Degree Days 59 41  
Month to date heating degree days 1073 1131  
Since 1 July heating degree days 2552 2815  
Cooling Degree Days 0 0  
Month to date cooling degree days 0 0  
Year to date cooling degree days 1167 712  
Moisture  
Dew Point 3 °F    
Average Humidity 82    
Maximum Humidity 95    
Minimum Humidity 68    
Precipitation  
Precipitation 0.00 in 0.02 in 0.20 in (1997)
Month to date precipitation 0.07 0.48  
Year to date precipitation 7.94 18.01  
Sea Level Pressure  
Sea Level Pressure 30.22 in    
Wind  
Wind Speed 8 mph (WSW)    
Max Wind Speed 18 mph    
Max Gust Speed 23 mph    
Visibility 9 miles    
Events      
T = Trace of Precipitation, MM = Missing Value Source: NWS Daily Summary

Daily Weather History Graph

Daily Weather History Graph

Search for Another Location

Airport or City:

Trip Planner

Search our weather history database for the weather conditions in past years. The results will help you decide how hot, cold, wet, or windy it might be!

Date:

Astronomy

Dec. 28, 2012 Rise Set
Actual Time 7:22 AM MST 4:26 PM MST
Civil Twilight 6:50 AM MST 4:58 PM MST
Nautical Twilight 6:14 AM MST 5:33 PM MST
Astronomical Twilight 5:40 AM MST 6:08 PM MST
Moon 5:06 PM MST (12/28) 7:17 AM MST (12/28)
Length of Visible Light 10h 07m
Length of Day
9h 03m
Full, 100% of the Moon is Illuminated
Dec 28
Full
Jan 4
Last Quarter
Jan 11
New
Jan 18
First Quarter
Jan 26
Full

Hourly Weather History & Observations

Time (MST) Temp. Windchill Dew Point Humidity Pressure Visibility Wind Dir Wind Speed Gust Speed Precip Events Conditions
12:53 AM -8.0 °F -21.0 °F -11.0 °F 86% 30.22 in 8.0 mi WSW 5.8 mph - N/A   Clear
1:53 AM -9.0 °F -22.3 °F -13.0 °F 83% 30.22 in 8.0 mi West 5.8 mph - N/A   Clear
2:53 AM -9.0 °F -26.4 °F -13.0 °F 83% 30.22 in 8.0 mi SW 9.2 mph - N/A   Clear
3:53 AM -11.9 °F -27.3 °F -16.1 °F 82% 30.22 in 8.0 mi WSW 6.9 mph - N/A   Clear
4:53 AM -8.0 °F -27.1 °F -11.9 °F 83% 30.21 in 8.0 mi WSW 11.5 mph - N/A   Clear
5:53 AM -9.9 °F -21.5 °F -15.0 °F 78% 30.23 in 8.0 mi WSW 4.6 mph - N/A   Clear
6:53 AM -11.0 °F -26.2 °F -15.0 °F 83% 30.24 in 8.0 mi WSW 6.9 mph - N/A   Clear
7:53 AM -7.1 °F -21.4 °F -11.0 °F 83% 30.23 in 5.0 mi WSW 6.9 mph - N/A   Clear
9:53 AM 1.9 °F -9.2 °F -0.9 °F 88% 30.25 in 6.0 mi WSW 5.8 mph - N/A   Clear
10:53 AM 10.9 °F 1.4 °F 7.0 °F 84% 30.23 in 8.0 mi SW 5.8 mph - N/A   Clear
11:53 AM 18.0 °F 8.7 °F 10.9 °F 74% 30.19 in 9.0 mi WSW 6.9 mph - N/A   Mostly Cloudy
12:53 PM 19.9 °F - 12.9 °F 74% 30.18 in 10.0 mi Calm Calm - N/A   Mostly Cloudy
1:53 PM 21.9 °F 15.7 °F 15.1 °F 75% 30.18 in 9.0 mi SSW 4.6 mph - N/A   Scattered Clouds
2:53 PM 21.9 °F 15.7 °F 15.1 °F 75% 30.19 in 10.0 mi WSW 4.6 mph - 0.02 in   Clear
3:53 PM 21.0 °F - 12.9 °F 71% 30.21 in 9.0 mi Calm Calm - N/A   Clear
4:20 PM 21.2 °F 6.4 °F 14.0 °F 74% 29.98 in 9.0 mi WNW 18.4 mph - N/A   Partly Cloudy
4:53 PM 19.0 °F 4.5 °F 12.9 °F 77% 30.21 in 10.0 mi West 16.1 mph - N/A   Clear
5:53 PM 17.1 °F 10.0 °F 12.0 °F 81% 30.24 in 10.0 mi Variable 4.6 mph - N/A   Scattered Clouds
6:53 PM 23.0 °F 10.6 °F 17.1 °F 78% 30.25 in 10.0 mi WNW 13.8 mph - N/A   Overcast
7:53 PM 21.9 °F 9.8 °F 17.1 °F 82% 30.25 in 10.0 mi West 12.7 mph - N/A   Overcast
8:53 PM 21.0 °F 8.6 °F 15.1 °F 78% 30.26 in 10.0 mi West 12.7 mph - N/A   Mostly Cloudy
10:53 PM 12.9 °F 0.7 °F 9.0 °F 84% 30.28 in 10.0 mi WSW 9.2 mph - N/A   Clear
11:53 PM 10.9 °F -4.7 °F 7.0 °F 84% 30.27 in 10.0 mi WSW 13.8 mph - N/A   Clear